Starlink 1765

operational
NORAD ID: 46344 Int'l Des: 2020-062 Owner: SPXS Country: US Constellation: starlink
LEOCIRCULARSTARLINK_TYPE

Über Starlink 1765

Beschreibung wird geladen...

Live-Position

3D-Globus wird geladen...

Nächste Überflüge

Höhenverlauf

Altitude vs Time

uPlot chart will show altitude changes over time

Zweizeiliger Elementsatz

1 46344U 20062V 25303.97849178 .00105955 00000-0 26246-2 0 9994
2 46344 53.0520 212.8714 0005999 122.0243 238.1344 15.39576590285122
Epoch: 30. Okt. 2025 • Age: 8 hours

Aktueller Status

Höhe 460.5 km
Geschwindigkeit 7.63 km/s
Subsatellitenpunkt -30.83°S, 38.49°E
Startdatum 3. Sept. 2020
Alter 5.1 years
Typ internet

Technische Details

Klassifizierung Payload
Masse 260.00 kg
Trockenmasse 248.00 kg
Gesamtmasse 260.00 kg
Länge 0.20 m
Durchmesser 2.80 m
Spannweite 9.00 m
Form Box + pan
Hersteller SPXS
Bus-Typ Starlink
Phasenstatus In Orbit
Besitzer/Staat SPXS/US

Große Konstellationen

Loading constellations...